BAW816 EGLL-EKCH

Flight info

Callsign BAW816
Flight time 1h 22m
Altitude 35000
Route BPK Q295 SOMVA DCT MAVAS DCT ROCZO DCT DOSUR P729 TUDLO
Aircraft A21N/M-SDE2E3FGHIRWXY/LB1

Departure

Time 2026-04-25 19:50
Airport London Heathrow Airport (EGLL)

Arrival

Time 2026-04-25 21:12
Airport Copenhagen Kastrup Airport (EKCH)
Time Latitude Longitude Altitude Speed Heading
2026-04-25 19:28 51.46982 -0.48212 89 ft 0 kts 90°
2026-04-25 19:37 51.46982 -0.48234 89 ft 3 kts 91°
2026-04-25 19:37 51.46983 -0.48267 89 ft 3 kts 96°
2026-04-25 19:38 51.46986 -0.48299 88 ft 3 kts 103°
2026-04-25 19:38 51.46992 -0.48329 90 ft 3 kts 118°
2026-04-25 19:38 51.47002 -0.48352 91 ft 3 kts 157°
2026-04-25 19:38 51.47010 -0.48357 87 ft 0 kts 179°
2026-04-25 19:40 51.47006 -0.48357 87 ft 1 kts 179°
2026-04-25 19:40 51.46991 -0.48356 87 ft 3 kts 179°
2026-04-25 19:40 51.46964 -0.48356 88 ft 5 kts 179°
2026-04-25 19:41 51.46925 -0.48356 86 ft 6 kts 179°
2026-04-25 19:41 51.46875 -0.48355 88 ft 8 kts 179°
2026-04-25 19:41 51.46827 -0.48354 86 ft 0 kts 179°
2026-04-25 19:42 51.46826 -0.48354 86 ft 0 kts 179°
2026-04-25 19:42 51.46813 -0.48354 86 ft 4 kts 179°
2026-04-25 19:42 51.46770 -0.48364 86 ft 8 kts 205°
2026-04-25 19:42 51.46726 -0.48450 86 ft 12 kts 216°
2026-04-25 19:43 51.46632 -0.48468 86 ft 12 kts 179°
2026-04-25 19:43 51.46590 -0.48467 86 ft 0 kts 179°
2026-04-25 19:48 51.46579 -0.48466 86 ft 5 kts 179°
2026-04-25 19:48 51.46528 -0.48466 86 ft 10 kts 180°
2026-04-25 19:49 51.46481 -0.48397 88 ft 7 kts 91°
2026-04-25 19:49 51.46481 -0.48395 87 ft 0 kts 91°
2026-04-25 19:49 51.46480 -0.47639 85 ft 104 kts 90°
2026-04-25 19:49 51.46485 -0.46121 91 ft 165 kts 90°
2026-04-25 19:50 51.46522 -0.42146 1427 ft 181 kts 84°
2026-04-25 19:50 51.46779 -0.40191 1929 ft 189 kts 70°
2026-04-25 19:50 51.47454 -0.38187 2136 ft 212 kts 51°
2026-04-25 19:51 51.48432 -0.36288 2434 ft 231 kts 50°
2026-04-25 19:51 51.49464 -0.34261 3069 ft 236 kts 51°
2026-04-25 19:51 51.50492 -0.32222 3777 ft 239 kts 51°
2026-04-25 19:51 51.51535 -0.30139 4502 ft 241 kts 51°
2026-04-25 19:52 51.52546 -0.27976 5215 ft 244 kts 58°
2026-04-25 19:52 51.53267 -0.25488 5907 ft 247 kts 70°
2026-04-25 19:52 51.53935 -0.22939 6590 ft 249 kts 56°
2026-04-25 19:52 51.55113 -0.20895 7220 ft 251 kts 34°
2026-04-25 19:53 51.56697 -0.19714 7860 ft 253 kts 17°
2026-04-25 19:53 51.58368 -0.18742 8558 ft 257 kts 21°
2026-04-25 19:53 51.60052 -0.17740 9207 ft 260 kts 19°
2026-04-25 19:53 51.61601 -0.16202 9825 ft 266 kts 46°
2026-04-25 19:54 51.62691 -0.13831 10409 ft 269 kts 54°
2026-04-25 19:54 51.63770 -0.11340 10996 ft 272 kts 53°
2026-04-25 19:54 51.64869 -0.08833 11584 ft 274 kts 53°
2026-04-25 19:54 51.65244 -0.07985 11771 ft 275 kts 53°
2026-04-25 19:55 51.67107 -0.03787 12716 ft 279 kts 52°
2026-04-25 19:55 51.68232 -0.01258 13273 ft 282 kts 53°
2026-04-25 19:55 51.69144 0.01570 13790 ft 287 kts 66°
2026-04-25 19:55 51.69872 0.04573 14305 ft 289 kts 66°
2026-04-25 19:56 51.70609 0.07624 14803 ft 292 kts 67°
2026-04-25 19:56 51.71347 0.10691 15159 ft 296 kts 67°
2026-04-25 19:56 51.72090 0.13786 15219 ft 296 kts 67°
2026-04-25 19:56 51.72837 0.16897 15682 ft 298 kts 67°
2026-04-25 19:57 51.73609 0.20108 15876 ft 315 kts 67°
2026-04-25 19:57 51.74425 0.23509 16006 ft 333 kts 67°
2026-04-25 19:57 51.75271 0.27047 16137 ft 351 kts 67°
2026-04-25 19:57 51.76171 0.30816 16265 ft 367 kts 67°
2026-04-25 19:58 51.77107 0.34748 16488 ft 380 kts 68°
2026-04-25 19:58 51.78061 0.38775 16938 ft 385 kts 68°
2026-04-25 19:58 51.79021 0.42835 17456 ft 389 kts 68°
2026-04-25 19:58 51.79977 0.46894 17989 ft 392 kts 68°
2026-04-25 19:59 51.80953 0.51040 18541 ft 395 kts 68°
2026-04-25 19:59 51.81935 0.55217 19023 ft 399 kts 67°
2026-04-25 19:59 51.82926 0.59427 19511 ft 402 kts 67°
2026-04-25 19:59 51.83930 0.63671 20010 ft 405 kts 67°
2026-04-25 20:00 51.84940 0.67948 20500 ft 408 kts 67°
2026-04-25 20:00 51.85268 0.69345 20663 ft 409 kts 67°
2026-04-25 20:00 51.86959 0.76575 21441 ft 415 kts 67°
2026-04-25 20:00 51.87982 0.80977 21896 ft 418 kts 67°
2026-04-25 20:01 51.90037 0.89854 22768 ft 424 kts 67°
2026-04-25 20:01 51.91077 0.94344 23195 ft 426 kts 67°
2026-04-25 20:01 51.92123 0.98868 23628 ft 429 kts 68°
2026-04-25 20:02 51.93173 1.03415 24022 ft 431 kts 68°
2026-04-25 20:02 51.94217 1.07945 24370 ft 433 kts 68°
2026-04-25 20:02 51.95271 1.12542 24716 ft 435 kts 68°
2026-04-25 20:02 51.96328 1.17155 25056 ft 437 kts 68°
2026-04-25 20:03 51.97386 1.21785 25392 ft 439 kts 68°
2026-04-25 20:03 51.98452 1.26457 25720 ft 441 kts 68°
2026-04-25 20:03 51.99521 1.31144 26047 ft 443 kts 68°
2026-04-25 20:03 52.00579 1.35804 26361 ft 445 kts 69°
2026-04-25 20:04 52.01653 1.40551 26691 ft 447 kts 69°
2026-04-25 20:04 52.02724 1.45303 27008 ft 449 kts 69°
2026-04-25 20:04 52.03438 1.48469 27222 ft 450 kts 69°
2026-04-25 20:04 52.04517 1.53258 27570 ft 451 kts 69°
2026-04-25 20:05 52.05597 1.58055 27902 ft 453 kts 69°
2026-04-25 20:05 52.06682 1.62887 28232 ft 454 kts 69°
2026-04-25 20:05 52.07749 1.67640 28671 ft 453 kts 69°
2026-04-25 20:05 52.09185 1.74080 29262 ft 451 kts 69°
2026-04-25 20:06 52.09891 1.77257 29553 ft 451 kts 69°
2026-04-25 20:06 52.10998 1.82021 29985 ft 449 kts 64°
2026-04-25 20:06 52.12621 1.86352 30400 ft 447 kts 53°
2026-04-25 20:06 52.14432 1.90459 30761 ft 447 kts 53°
2026-04-25 20:07 52.16248 1.94562 31130 ft 446 kts 53°
2026-04-25 20:07 52.18062 1.98651 31533 ft 445 kts 53°
2026-04-25 20:07 52.19871 2.02742 31931 ft 443 kts 53°
2026-04-25 20:07 52.21649 2.06764 32320 ft 442 kts 53°
2026-04-25 20:08 52.23445 2.10832 32713 ft 441 kts 53°
2026-04-25 20:08 52.25233 2.14893 33097 ft 440 kts 53°
2026-04-25 20:08 52.27012 2.18954 33490 ft 439 kts 53°
2026-04-25 20:08 52.28779 2.23010 33898 ft 437 kts 53°
2026-04-25 20:09 52.30534 2.27052 34288 ft 436 kts 53°
2026-04-25 20:09 52.32292 2.31104 34596 ft 435 kts 53°
2026-04-25 20:09 52.34038 2.35122 34878 ft 434 kts 53°
2026-04-25 20:09 52.35789 2.39154 35148 ft 434 kts 53°
2026-04-25 20:10 52.37522 2.43146 35257 ft 436 kts 53°
2026-04-25 20:10 52.39292 2.47221 35283 ft 441 kts 53°
2026-04-25 20:10 52.42888 2.55537 35282 ft 450 kts 53°
2026-04-25 20:11 52.46499 2.63938 35280 ft 451 kts 53°
2026-04-25 20:11 52.50119 2.72371 35284 ft 451 kts 53°
2026-04-25 20:12 52.53722 2.80784 35278 ft 450 kts 53°
2026-04-25 20:12 52.56705 2.87771 35282 ft 450 kts 53°
2026-04-25 20:13 52.60884 2.97606 35284 ft 450 kts 54°
2026-04-25 20:13 52.64468 3.06067 35283 ft 450 kts 54°
2026-04-25 20:14 52.68026 3.14494 35289 ft 450 kts 53°
2026-04-25 20:14 52.71595 3.22970 35284 ft 450 kts 53°
2026-04-25 20:15 52.75163 3.31481 35294 ft 449 kts 53°
2026-04-25 20:15 52.78689 3.39936 35293 ft 449 kts 54°
2026-04-25 20:16 52.82230 3.48431 35290 ft 449 kts 53°
2026-04-25 20:16 52.85769 3.56945 35290 ft 449 kts 53°
2026-04-25 20:17 52.89303 3.65474 35290 ft 448 kts 54°
2026-04-25 20:17 52.92766 3.74029 35291 ft 449 kts 55°
2026-04-25 20:18 52.96154 3.82750 35307 ft 449 kts 56°
2026-04-25 20:18 52.99509 3.91508 35298 ft 449 kts 56°
2026-04-25 20:19 53.02847 4.00206 35292 ft 449 kts 56°
2026-04-25 20:19 53.06218 4.08954 35287 ft 448 kts 55°
2026-04-25 20:20 53.09588 4.17701 35287 ft 448 kts 55°
2026-04-25 20:20 53.12922 4.26423 35284 ft 448 kts 56°
2026-04-25 20:21 53.16266 4.35218 35276 ft 448 kts 56°
2026-04-25 20:21 53.19593 4.44002 35289 ft 448 kts 56°
2026-04-25 20:22 53.22370 4.51327 35272 ft 448 kts 56°
2026-04-25 20:22 53.26240 4.61566 35274 ft 448 kts 56°
2026-04-25 20:23 53.29553 4.70404 35268 ft 448 kts 56°
2026-04-25 20:23 53.32859 4.79241 35264 ft 448 kts 56°
2026-04-25 20:24 53.36159 4.88088 35264 ft 447 kts 56°
2026-04-25 20:24 53.39433 4.96894 35261 ft 447 kts 56°
2026-04-25 20:25 53.42724 5.05781 35258 ft 447 kts 56°
2026-04-25 20:25 53.45986 5.14601 35265 ft 447 kts 56°
2026-04-25 20:26 53.49258 5.23499 35259 ft 447 kts 56°
2026-04-25 20:26 53.52517 5.32390 35257 ft 447 kts 56°
2026-04-25 20:27 53.55777 5.41322 35253 ft 447 kts 56°
2026-04-25 20:27 53.59008 5.50205 35253 ft 447 kts 56°
2026-04-25 20:28 53.62258 5.59170 35260 ft 448 kts 56°
2026-04-25 20:28 53.65505 5.68148 35250 ft 448 kts 56°
2026-04-25 20:29 53.68721 5.77086 35255 ft 448 kts 56°
2026-04-25 20:29 53.71951 5.86100 35251 ft 447 kts 56°
2026-04-25 20:30 53.75153 5.95060 35248 ft 447 kts 56°
2026-04-25 20:30 53.78363 6.04088 35246 ft 447 kts 56°
2026-04-25 20:31 53.81573 6.13117 35255 ft 447 kts 56°
2026-04-25 20:31 53.84755 6.22109 35264 ft 447 kts 56°
2026-04-25 20:32 53.87964 6.31225 35269 ft 447 kts 55°
2026-04-25 20:32 53.91127 6.40229 35262 ft 447 kts 55°
2026-04-25 20:33 53.94300 6.49309 35256 ft 447 kts 55°
2026-04-25 20:33 53.96934 6.56869 35255 ft 447 kts 55°
2026-04-25 20:34 54.00608 6.67457 35256 ft 447 kts 56°
2026-04-25 20:34 54.03761 6.76567 35248 ft 447 kts 56°
2026-04-25 20:35 54.06913 6.85706 35262 ft 447 kts 55°
2026-04-25 20:35 54.10020 6.94767 35239 ft 443 kts 54°
2026-04-25 20:36 54.13126 7.03848 35232 ft 443 kts 54°
2026-04-25 20:36 54.16226 7.12954 35231 ft 443 kts 54°
2026-04-25 20:37 54.19300 7.22016 35225 ft 443 kts 54°
2026-04-25 20:37 54.22388 7.31137 35215 ft 443 kts 54°
2026-04-25 20:38 54.25468 7.40267 35220 ft 443 kts 55°
2026-04-25 20:38 54.28526 7.49366 35223 ft 441 kts 53°
2026-04-25 20:39 54.31577 7.58485 35207 ft 440 kts 54°
2026-04-25 20:39 54.33586 7.64525 35205 ft 440 kts 54°
2026-04-25 20:40 54.37620 7.76701 35202 ft 441 kts 54°
2026-04-25 20:40 54.40664 7.85873 35202 ft 441 kts 54°
2026-04-25 20:41 54.43681 7.95010 35196 ft 441 kts 54°
2026-04-25 20:41 54.46694 8.04213 35198 ft 441 kts 54°
2026-04-25 20:42 54.49697 8.13418 35184 ft 438 kts 53°
2026-04-25 20:42 54.52648 8.22487 35159 ft 437 kts 53°
2026-04-25 20:43 54.55630 8.31643 35160 ft 437 kts 53°
2026-04-25 20:43 54.58582 8.40755 35162 ft 437 kts 53°
2026-04-25 20:44 54.61537 8.49937 35153 ft 438 kts 53°
2026-04-25 20:44 54.64477 8.59105 35154 ft 438 kts 53°
2026-04-25 20:45 54.67428 8.68336 35181 ft 438 kts 53°
2026-04-25 20:45 54.70369 8.77571 35159 ft 437 kts 52°
2026-04-25 20:46 54.73260 8.86701 35130 ft 434 kts 52°
2026-04-25 20:46 54.76145 8.95818 35126 ft 431 kts 52°
2026-04-25 20:47 54.79044 9.04998 35121 ft 435 kts 52°
2026-04-25 20:47 54.81941 9.14232 35102 ft 435 kts 52°
2026-04-25 20:48 54.84805 9.23421 35105 ft 436 kts 52°
2026-04-25 20:48 54.87687 9.32697 35129 ft 435 kts 52°
2026-04-25 20:49 54.90561 9.41962 34893 ft 435 kts 51°
2026-04-25 20:49 54.91992 9.46596 34652 ft 434 kts 52°
2026-04-25 20:49 54.93403 9.51183 34415 ft 434 kts 52°
2026-04-25 20:50 54.94830 9.55822 34172 ft 434 kts 51°
2026-04-25 20:50 54.96254 9.60451 33908 ft 434 kts 52°
2026-04-25 20:50 54.97671 9.65059 33637 ft 435 kts 52°
2026-04-25 20:50 54.99118 9.69772 33002 ft 437 kts 52°
2026-04-25 20:51 55.00537 9.74408 32180 ft 440 kts 52°
2026-04-25 20:51 55.01972 9.79125 31624 ft 437 kts 52°
2026-04-25 20:51 55.03287 9.83920 31289 ft 440 kts 61°
2026-04-25 20:51 55.04174 9.88973 31246 ft 430 kts 62°
2026-04-25 20:52 55.05009 9.93911 31145 ft 420 kts 62°
2026-04-25 20:52 55.05290 9.95567 31115 ft 421 kts 62°
2026-04-25 20:52 55.06409 10.02096 30990 ft 424 kts 62°
2026-04-25 20:52 55.07545 10.08667 30037 ft 429 kts 62°
2026-04-25 20:53 55.08408 10.13675 28755 ft 431 kts 62°
2026-04-25 20:53 55.08984 10.17066 27920 ft 432 kts 62°
2026-04-25 20:53 55.09822 10.22048 26795 ft 433 kts 62°
2026-04-25 20:53 55.10663 10.27097 25650 ft 432 kts 62°
2026-04-25 20:54 55.11496 10.32127 24741 ft 426 kts 62°
2026-04-25 20:54 55.12292 10.37019 24264 ft 411 kts 62°
2026-04-25 20:54 55.13056 10.41749 23793 ft 398 kts 61°
2026-04-25 20:54 55.13800 10.46332 23303 ft 385 kts 60°
2026-04-25 20:55 55.14521 10.50750 22869 ft 372 kts 60°
2026-04-25 20:55 55.15239 10.55071 22447 ft 375 kts 60°
2026-04-25 20:55 55.15977 10.59444 22023 ft 374 kts 60°
2026-04-25 20:55 55.16706 10.63801 21582 ft 371 kts 60°
2026-04-25 20:56 55.17422 10.68142 21154 ft 369 kts 60°
2026-04-25 20:56 55.18127 10.72457 20706 ft 368 kts 60°
2026-04-25 20:56 55.18819 10.76713 20268 ft 366 kts 60°
2026-04-25 20:56 55.19511 10.80990 19818 ft 365 kts 60°
2026-04-25 20:57 55.20206 10.85270 19351 ft 364 kts 60°
2026-04-25 20:57 55.20901 10.89555 18886 ft 364 kts 60°
2026-04-25 20:57 55.21593 10.93837 18413 ft 364 kts 60°
2026-04-25 20:57 55.22281 10.98108 17880 ft 364 kts 60°
2026-04-25 20:58 55.22952 11.02305 17413 ft 362 kts 60°
2026-04-25 20:58 55.23627 11.06552 16970 ft 360 kts 60°
2026-04-25 20:58 55.24302 11.10794 16445 ft 360 kts 60°
2026-04-25 20:58 55.24973 11.15026 15956 ft 359 kts 60°
2026-04-25 20:59 55.25641 11.19240 15473 ft 357 kts 60°
2026-04-25 20:59 55.26297 11.23374 15001 ft 356 kts 60°
2026-04-25 20:59 55.26961 11.27562 14533 ft 356 kts 60°
2026-04-25 20:59 55.27622 11.31752 14021 ft 355 kts 61°
2026-04-25 21:00 55.28279 11.35927 13493 ft 354 kts 62°
2026-04-25 21:00 55.28711 11.38681 13174 ft 352 kts 62°
2026-04-25 21:00 55.30192 11.48221 12063 ft 344 kts 64°
2026-04-25 21:01 55.30825 11.52308 11586 ft 341 kts 65°
2026-04-25 21:01 55.31437 11.56263 11114 ft 338 kts 66°
2026-04-25 21:01 55.32052 11.60226 10659 ft 335 kts 66°
2026-04-25 21:01 55.32662 11.64172 10201 ft 333 kts 68°
2026-04-25 21:02 55.33267 11.68079 9743 ft 330 kts 68°
2026-04-25 21:02 55.33867 11.71963 9256 ft 327 kts 69°
2026-04-25 21:02 55.34458 11.75806 8815 ft 323 kts 69°
2026-04-25 21:02 55.35030 11.79555 8384 ft 319 kts 69°
2026-04-25 21:03 55.35602 11.83314 7939 ft 316 kts 69°
2026-04-25 21:03 55.36166 11.87032 7513 ft 312 kts 70°
2026-04-25 21:03 55.36725 11.90707 7086 ft 309 kts 70°
2026-04-25 21:03 55.37280 11.94359 6660 ft 307 kts 70°
2026-04-25 21:04 55.37821 11.97920 6235 ft 304 kts 70°
2026-04-25 21:04 55.38363 12.01509 5818 ft 301 kts 70°
2026-04-25 21:04 55.38897 12.05054 5389 ft 298 kts 70°
2026-04-25 21:04 55.39427 12.08575 4988 ft 295 kts 70°
2026-04-25 21:05 55.39942 12.12015 4579 ft 292 kts 70°
2026-04-25 21:05 55.40456 12.15458 4194 ft 289 kts 70°
2026-04-25 21:05 55.40961 12.18848 3985 ft 280 kts 70°
2026-04-25 21:05 55.41438 12.22084 3909 ft 267 kts 70°
2026-04-25 21:06 55.41894 12.25187 3795 ft 256 kts 69°
2026-04-25 21:06 55.42333 12.28169 3688 ft 246 kts 69°
2026-04-25 21:06 55.42755 12.31032 3582 ft 237 kts 69°
2026-04-25 21:06 55.43027 12.32869 3508 ft 230 kts 69°
2026-04-25 21:07 55.43793 12.36184 3374 ft 208 kts 49°
2026-04-25 21:07 55.44736 12.38046 3284 ft 202 kts 38°
2026-04-25 21:07 55.45767 12.39681 3192 ft 201 kts 36°
2026-04-25 21:07 55.46817 12.41293 3100 ft 200 kts 36°
2026-04-25 21:08 55.47869 12.42903 2987 ft 199 kts 36°
2026-04-25 21:08 55.48904 12.44490 2768 ft 195 kts 35°
2026-04-25 21:08 55.49915 12.46042 2512 ft 186 kts 34°
2026-04-25 21:08 55.50858 12.47492 2293 ft 172 kts 34°
2026-04-25 21:09 55.52481 12.49990 1841 ft 140 kts 32°
2026-04-25 21:09 55.53205 12.51098 1644 ft 135 kts 32°
2026-04-25 21:09 55.53917 12.52188 1458 ft 135 kts 31°
2026-04-25 21:10 55.54621 12.53270 1273 ft 133 kts 31°
2026-04-25 21:10 55.55317 12.54340 1088 ft 133 kts 32°
2026-04-25 21:10 55.56014 12.55412 902 ft 133 kts 33°
2026-04-25 21:10 55.56706 12.56472 706 ft 135 kts 33°
2026-04-25 21:11 55.57433 12.57559 542 ft 138 kts 35°
2026-04-25 21:11 55.58140 12.58717 396 ft 138 kts 36°
2026-04-25 21:11 55.58867 12.59801 232 ft 137 kts 34°
2026-04-25 21:11 55.59575 12.60906 56 ft 135 kts 37°
2026-04-25 21:12 55.60153 12.61754 27 ft 54 kts 42°
2026-04-25 21:12 55.60422 12.62186 24 ft 47 kts 39°
2026-04-25 21:12 55.60601 12.62328 26 ft 14 kts 20°
2026-04-25 21:12 55.60616 12.62336 26 ft 0 kts 15°
2026-04-25 21:13 55.60617 12.62336 26 ft 1 kts 15°
2026-04-25 21:13 55.60638 12.62347 25 ft 5 kts 14°
2026-04-25 21:14 55.60687 12.62367 25 ft 9 kts 13°
2026-04-25 21:14 55.60761 12.62398 24 ft 13 kts 15°
2026-04-25 21:14 55.60845 12.62482 24 ft 15 kts 36°
2026-04-25 21:14 55.60932 12.62615 24 ft 18 kts 41°
2026-04-25 21:15 55.61030 12.62767 24 ft 20 kts 41°
2026-04-25 21:15 55.61143 12.62941 25 ft 22 kts 40°
2026-04-25 21:15 55.61266 12.63130 25 ft 24 kts 43°
2026-04-25 21:15 55.61399 12.63339 24 ft 26 kts 40°
2026-04-25 21:16 55.61519 12.63521 24 ft 22 kts 41°
2026-04-25 21:16 55.61639 12.63709 24 ft 24 kts 40°
2026-04-25 21:16 55.61769 12.63915 24 ft 26 kts 41°
2026-04-25 21:16 55.61920 12.64111 26 ft 28 kts 25°
2026-04-25 21:17 55.62072 12.64234 24 ft 24 kts 26°
2026-04-25 21:17 55.62226 12.64365 22 ft 21 kts 27°
2026-04-25 21:17 55.62289 12.64553 25 ft 18 kts 67°
2026-04-25 21:17 55.62343 12.64769 24 ft 20 kts 65°
2026-04-25 21:18 55.62326 12.64939 24 ft 15 kts 122°
2026-04-25 21:18 55.62277 12.65113 24 ft 17 kts 88°
2026-04-25 21:18 55.62372 12.65200 24 ft 18 kts
2026-04-25 21:18 55.62502 12.65183 25 ft 20 kts 358°
2026-04-25 21:19 55.62619 12.65183 24 ft 11 kts
2026-04-25 21:19 55.62682 12.65163 24 ft 10 kts 307°
2026-04-25 21:19 55.62697 12.65088 24 ft 0 kts 288°